Vertical_Velocity
-3 9 -13 -6 -4 8 4 -4 -8 -1 -5 -2 2 11 4 2 -1 5 6 1 4 -2 5 4 4 -1 1
-1 -5 -4 -3 -7 -6 -6 -6 -7 5 2 -9 4 3 3 1 -2 -0 -2 0 -6 13 11 4 3 4 -2
-28 2 -5 3 -9 -3 -4 -7 -3 -3 6 8 5 5 3 8 -0 -2 -0 -3 3 9 -18 22 9 9 -1
-3 -7 2 0 -1 -5 -14 -3 -14 -5 -3 -2 -8 -5 -1 -3 2 -1 -3 0 -4 8 -2 -9 3 19 13
-3 -3 -7 -7 2 -3 -8 -5 -12 0 -6 -10 -8 -6 -6 -2 -2 0 1 6 7 -3 4 -19 22 49 24
-1 0 -10 -1 -1 2 1 0 -19 2 1 -14 -11 -6 -4 -0 -1 -1 -1 -5 -3 1 1 -5 7 18 10
1 -3 -5 -8 -2 -3 6 8 -6 -4 2 -11 1 -10 -11 -10 0 1 0 3 -5 -1 -5 10 15 33 13
13 7 11 9 33 33 -5 -4 -1 -4 5 -4 -4 -10 0 -6 -5 -1 1 2 -4 -6 11 11 9 14 1
-2 -5 -1 -5 -1 6 -1 9 -10 -13 -8 14 -6 -2 -6 -8 -2 -8 -2 -5 2 6 10 8 11 4 3
4 -4 3 -5 -0 7 2 8 9 -12 -10 21 10 7 1 -9 -8 -4 -8 4 14 13 7 2 1 -3 1
-5 -5 -4 -0 2 2 7 14 4 -2 -1 11 -4 -3 1 -2 -2 -1 14 10 9 7 9 9 3 -1 -4
-3 -2 -3 -1 -1 3 6 6 5 3 -2 8 4 3 -0 5 0 8 12 5 3 -1 3 5 7 -0 2
-1 -1 2 -1 -1 -2 -0 2 4 3 -3 -2 1 6 6 5 -3 -0 3 12 7 -3 1 7 6 -0 -3
0 1 1 0 -2 4 2 2 1 2 1 1 7 6 1 4 7 1 8 -7 4 5 3 4 2 1 -2
2 -1 -4 5 -3 4 3 2 4 4 2 3 5 5 4 3 3 8 4 -3 4 -1 5 3 10 7 1
-1 1 4 4 2 3 2 4 4 2 2 2 2 -3 -2 1 11 3 4 1 3 4 2 -1 -0 -0 1
4 3 11 3 3 1 3 3 1 1 -4 -2 0 2 -1 -3 1 1 1 -0 -1 -2 1 -2 -2 -1 0
Height
1324 1316 1312 1308 1305 1305 1299 1296 1293 1287 1286 1286 1284 1281 1279 1280 1281 1282 1282 1283 1286 1288 1293 1297 1302 1307 1314
1312 1307 1304 1301 1296 1292 1287 1284 1281 1277 1275 1274 1272 1270 1267 1267 1268 1268 1268 1269 1270 1271 1276 1281 1286 1291 1298
1304 1299 1293 1291 1285 1282 1277 1272 1270 1266 1262 1261 1259 1258 1256 1256 1256 1256 1255 1255 1256 1258 1259 1263 1270 1275 1281
1300 1292 1288 1283 1279 1272 1264 1262 1255 1254 1252 1250 1247 1244 1243 1244 1243 1244 1243 1243 1245 1246 1249 1250 1255 1259 1263
1292 1286 1281 1275 1271 1265 1259 1251 1246 1246 1241 1239 1236 1234 1231 1230 1231 1231 1231 1232 1234 1233 1235 1235 1237 1242 1250
1285 1279 1273 1269 1263 1256 1251 1243 1232 1238 1233 1226 1230 1224 1222 1219 1218 1219 1219 1221 1221 1223 1224 1223 1228 1232 1238
1277 1270 1263 1259 1252 1244 1240 1234 1226 1224 1225 1210 1216 1209 1210 1209 1208 1208 1209 1209 1209 1211 1213 1214 1217 1221 1229
1267 1260 1255 1247 1240 1235 1229 1221 1214 1210 1212 1198 1202 1196 1196 1196 1196 1196 1197 1197 1197 1198 1202 1204 1213 1218 1225
1258 1252 1245 1238 1233 1226 1217 1212 1202 1198 1196 1191 1187 1186 1185 1183 1184 1185 1185 1186 1187 1191 1194 1200 1208 1217 1227
1243 1237 1231 1224 1220 1216 1208 1202 1196 1187 1185 1181 1178 1177 1175 1172 1173 1173 1173 1178 1181 1184 1190 1199 1206 1213 1223
1233 1225 1219 1213 1208 1203 1198 1194 1187 1179 1176 1177 1170 1169 1169 1168 1167 1169 1171 1175 1180 1186 1193 1198 1203 1211 1220
1227 1218 1211 1204 1199 1192 1186 1181 1176 1170 1166 1165 1160 1160 1160 1161 1164 1166 1168 1171 1178 1184 1192 1199 1207 1213 1222
1221 1212 1205 1197 1189 1181 1176 1171 1167 1163 1159 1154 1151 1151 1153 1155 1156 1160 1166 1173 1179 1186 1193 1200 1206 1213 1221
1214 1204 1196 1188 1182 1175 1170 1165 1162 1159 1155 1150 1148 1148 1149 1151 1154 1158 1164 1170 1179 1187 1193 1200 1206 1213 1221
1207 1197 1188 1183 1176 1170 1165 1162 1160 1158 1155 1152 1149 1147 1148 1149 1152 1158 1165 1172 1180 1186 1194 1200 1207 1214 1221
1202 1193 1185 1179 1172 1167 1164 1161 1160 1159 1157 1156 1154 1152 1154 1156 1160 1164 1170 1175 1181 1189 1195 1202 1209 1215 1222
1197 1189 1183 1175 1171 1167 1165 1163 1162 1161 1161 1160 1159 1160 1160 1161 1167 1171 1176 1178 1183 1190 1197 1203 1208 1214 1219